Orbital Elements at Epoch 2459000.5 (2020-May-31.0) TDB
Reference: JPL 27 (heliocentric ecliptic J2000)
Element | Value | Uncertainty (1-sigma) | Units |
e | .1968506716990642 | 4.6113e-08 | |
a | 2.619381241799545 | 1.6091e-08 | au |
q | 2.103754284915375 | 1.2573e-07 | au |
i | 13.39449833741763 | 4.4594e-06 | deg |
node | 13.06051957867508 | 1.968e-05 | deg |
peri | 213.9626862933837 | 2.4561e-05 | deg |
M | 309.492188610833 | 1.787e-05 | deg |
tp | 2459217.746378620758 (2021-Jan-03.24637862) | 7.801e-05 | TDB |
period | 1548.447540141233 4.24 | 1.4269e-05 3.907e-08 | d yr |
n | .2324909244049461 | 2.1424e-09 | deg/d |
Q | 3.135008198683714 | 1.9259e-08 | au |
|
| | Orbit Determination Parameters
Additional Information
|